TimeEDT,TemperatureF,Dew PointF,Humidity,Sea Level PressureIn,VisibilityMPH,Wind Direction,Wind SpeedMPH,Gust SpeedMPH,PrecipitationIn,Events,Conditions,WindDirDegrees,DateUTC
12:15 AM,55.4,55.4,100,29.93,2.5,Calm,Calm,-,N/A,,Clear,0,2012-10-06 04:15:00
12:35 AM,55.4,55.4,100,29.93,0.2,Calm,Calm,-,N/A,Fog,Fog,0,2012-10-06 04:35:00
12:55 AM,53.6,53.6,100,29.92,0.5,Calm,Calm,-,N/A,Fog,Fog,0,2012-10-06 04:55:00
1:15 AM,53.6,53.6,100,29.92,3.0,Calm,Calm,-,N/A,,Scattered Clouds,0,2012-10-06 05:15:00
1:35 AM,51.8,51.8,100,29.91,0.2,Calm,Calm,-,N/A,Fog,Fog,0,2012-10-06 05:35:00
1:55 AM,53.6,53.6,100,29.91,0.2,Calm,Calm,-,N/A,Fog,Fog,0,2012-10-06 05:55:00
2:15 AM,51.8,51.8,100,29.91,1.5,Calm,Calm,-,N/A,,Mostly Cloudy,0,2012-10-06 06:15:00
2:35 AM,51.8,51.8,100,29.90,0.2,Calm,Calm,-,N/A,Fog,Fog,0,2012-10-06 06:35:00
2:55 AM,51.8,51.8,100,29.90,0.2,Calm,Calm,-,N/A,Fog,Fog,0,2012-10-06 06:55:00
3:15 AM,51.8,51.8,100,29.90,3.0,Calm,Calm,-,N/A,,Overcast,0,2012-10-06 07:15:00
3:35 AM,51.8,51.8,100,29.88,0.2,Calm,Calm,-,N/A,Fog,Fog,0,2012-10-06 07:35:00
3:55 AM,51.8,51.8,100,29.88,5.0,Calm,Calm,-,N/A,,Scattered Clouds,0,2012-10-06 07:55:00
4:15 AM,50.0,50.0,100,29.88,2.5,Calm,Calm,-,N/A,,Scattered Clouds,0,2012-10-06 08:15:00
4:35 AM,50.0,50.0,100,29.88,5.0,Calm,Calm,-,N/A,,Mostly Cloudy,0,2012-10-06 08:35:00
4:55 AM,51.8,51.8,100,29.88,0.2,Calm,Calm,-,N/A,Fog,Fog,0,2012-10-06 08:55:00
5:35 AM,51.8,51.8,100,29.87,1.0,Calm,Calm,-,N/A,,Overcast,0,2012-10-06 09:35:00
5:55 AM,51.8,51.8,100,29.87,0.8,Calm,Calm,-,N/A,,Mostly Cloudy,0,2012-10-06 09:55:00
6:15 AM,50.0,50.0,100,29.87,1.0,Calm,Calm,-,N/A,,Mist,0,2012-10-06 10:15:00
6:35 AM,50.0,50.0,100,29.86,0.5,Calm,Calm,-,N/A,Fog,Fog,0,2012-10-06 10:35:00
6:45 AM,51.8,51.8,100,29.87,5.0,Calm,Calm,-,N/A,Fog,Patches of Fog,0,2012-10-06 10:45:00
7:45 AM,53.6,53.6,100,29.86,3.0,Calm,Calm,-,N/A,Fog,Patches of Fog,0,2012-10-06 11:45:00
8:45 AM,57.2,57.2,100,29.86,3.0,Calm,Calm,-,N/A,Fog,Partly Cloudy,0,2012-10-06 12:45:00
9:45 AM,66.2,60.8,83,29.84,7.0,SW,8.1,-,N/A,,Scattered Clouds,220,2012-10-06 13:45:00
10:45 AM,71.6,60.8,69,29.82,10.0,SW,10.4,16.1,N/A,,Mostly Cloudy,230,2012-10-06 14:45:00
11:45 AM,73.4,60.8,65,29.81,10.0,WSW,12.7,20.7,N/A,,Mostly Cloudy,240,2012-10-06 15:45:00
12:45 PM,75.2,60.8,61,29.79,10.0,West,10.4,18.4,N/A,,Mostly Cloudy,260,2012-10-06 16:45:00
1:45 PM,73.4,59.0,61,29.78,10.0,West,13.8,19.6,N/A,,Overcast,260,2012-10-06 17:45:00
2:45 PM,71.6,57.2,60,29.79,10.0,WNW,16.1,23.0,N/A,,Overcast,290,2012-10-06 18:45:00
3:45 PM,68.0,57.2,68,29.82,15.0,NW,13.8,27.6,N/A,,Overcast,320,2012-10-06 19:45:00
4:45 PM,62.6,53.6,72,29.86,10.0,NW,11.5,21.9,N/A,,Overcast,310,2012-10-06 20:45:00
5:45 PM,60.8,48.2,63,29.89,10.0,NW,10.4,19.6,N/A,,Scattered Clouds,310,2012-10-06 21:45:00
7:45 PM,53.6,48.2,82,29.94,10.0,Calm,Calm,-,N/A,,Clear,0,2012-10-06 23:45:00
8:45 PM,50.0,46.4,87,29.97,10.0,Calm,Calm,-,N/A,,Clear,0,2012-10-07 00:45:00
9:45 PM,50.0,46.4,87,29.99,10.0,WNW,3.5,-,N/A,,Clear,300,2012-10-07 01:45:00
10:55 PM,44.6,44.6,100,30.00,10.0,Calm,Calm,-,N/A,,Clear,0,2012-10-07 02:55:00
11:15 PM,46.4,46.4,100,30.00,10.0,NW,3.5,-,N/A,,Unknown,310,2012-10-07 03:15:00
11:35 PM,46.4,44.6,93,30.00,10.0,Calm,Calm,-,N/A,,Clear,0,2012-10-07 03:35:00
11:55 PM,46.4,46.4,100,30.00,10.0,Calm,Calm,-,N/A,,Unknown,0,2012-10-07 03:55:00